Hoquiam, WA

11:57 AM PDT on June 22, 2017 (GMT -0700)
Bowerman

Weather History for KHQM - July, 2013

Change the Weather History Date:

Saturday, July 6, 2013

  Actual Average Record
Temperature  
Mean Temperature 61 °F 59 °F  
Max Temperature 65 °F 66 °F 86 °F (1953)
Min Temperature 56 °F 53 °F 40 °F (1971)
Degree Days  
Heating Degree Days 4 6  
Month to date heating degree days 15 36  
Since 1 June heating degree days 190 282  
Cooling Degree Days 0 0  
Month to date cooling degree days 0 0  
Year to date cooling degree days 11 3  
Since 1 June cooling degree days 8 2  
Growing Degree Days 10 (Base 50)    
Moisture  
Dew Point 54 °F    
Average Humidity 80    
Maximum Humidity 87    
Minimum Humidity 72    
Precipitation  
Precipitation 0.00 in 0.05 in 0.73 in (1963)
Month to date precipitation 0.00 0.30  
Year to date precipitation 32.56 35.46  
Sea Level Pressure  
Sea Level Pressure 29.98 in    
Wind  
Wind Speed 7 mph (West)    
Max Wind Speed 15 mph    
Max Gust Speed 18 mph    
Visibility 10 miles    
Events      
T = Trace of Precipitation, MM = Missing Value Source: NWS Daily Summary

Daily Weather History Graph

Daily Weather History Graph

Search for Another Location

Airport or City:

Trip Planner

Search our weather history database for the weather conditions in past years. The results will help you decide how hot, cold, wet, or windy it might be!

Date:

Astronomy

Jul. 06, 2013 Rise Set
Actual Time 5:28 AM PDT 9:12 PM PDT
Civil Twilight 4:49 AM PDT 9:51 PM PDT
Nautical Twilight 3:56 AM PDT 10:43 PM PDT
Astronomical Twilight 2:41 AM PDT 11:57 PM PDT
Moon 4:22 AM PDT (7/6) 7:53 PM PDT (7/6)
Length of Visible Light 17h 01m
Length of Day
15h 43m
Waning Crescent, 2% of the Moon is Illuminated
Jul 6
Waning Crescent
Jul 8
New
Jul 15
First Quarter
Jul 22
Full
Jul 29
Last Quarter

Hourly Weather History & Observations

Time (PDT) Temp. Dew Point Humidity Pressure Visibility Wind Dir Wind Speed Gust Speed Precip Events Conditions
12:53 AM 57.9 °F 52.0 °F 81% 30.02 in 10.0 mi NW 5.8 mph - N/A   Overcast
1:15 AM 57.2 °F 51.8 °F 82% 30.01 in 10.0 mi West 3.5 mph - N/A   Overcast
1:53 AM 57.9 °F 52.0 °F 81% 30.01 in 10.0 mi WNW 5.8 mph - N/A   Overcast
2:53 AM 57.9 °F 52.0 °F 81% 30.01 in 10.0 mi Variable 3.5 mph - N/A   Overcast
3:53 AM 57.0 °F 52.0 °F 83% 30.01 in 10.0 mi NW 4.6 mph - N/A   Overcast
4:53 AM 57.0 °F 52.0 °F 83% 30.01 in 10.0 mi WNW 3.5 mph - N/A   Overcast
5:53 AM 55.9 °F 52.0 °F 87% 30.01 in 10.0 mi NNW 3.5 mph - N/A   Overcast
6:53 AM 57.0 °F 52.0 °F 83% 30.01 in 10.0 mi Calm Calm - N/A   Overcast
7:53 AM 57.0 °F 53.1 °F 87% 30.01 in 10.0 mi NW 4.6 mph - N/A   Overcast
8:53 AM 57.9 °F 53.1 °F 84% 30.02 in 10.0 mi Calm Calm - N/A   Overcast
9:53 AM 59.0 °F 54.0 °F 83% 30.01 in 8.0 mi South 3.5 mph - N/A   Overcast
10:53 AM 60.1 °F 55.0 °F 83% 30.01 in 10.0 mi SSW 5.8 mph - N/A   Overcast
11:53 AM 62.1 °F 54.0 °F 75% 30.00 in 10.0 mi West 4.6 mph - N/A   Overcast
12:04 PM 62.6 °F 55.4 °F 77% 29.99 in 10.0 mi West 5.8 mph - N/A   Overcast
12:42 PM 62.6 °F 55.4 °F 77% 29.99 in 9.0 mi SW 10.4 mph - N/A   Partly Cloudy
12:53 PM 63.0 °F 55.9 °F 78% 29.99 in 9.0 mi SSW 10.4 mph - N/A   Clear
1:53 PM 63.0 °F 55.0 °F 75% 29.99 in 9.0 mi WSW 11.5 mph - N/A   Clear
2:53 PM 64.0 °F 55.0 °F 73% 29.98 in 10.0 mi WSW 11.5 mph - N/A   Clear
3:53 PM 64.0 °F 55.0 °F 73% 29.97 in 10.0 mi SW 12.7 mph - N/A   Clear
4:53 PM 64.0 °F 55.9 °F 75% 29.96 in 10.0 mi WSW 13.8 mph - N/A   Clear
5:53 PM 64.0 °F 55.9 °F 75% 29.95 in 9.0 mi WSW 12.7 mph - N/A   Clear
6:53 PM 63.0 °F 55.9 °F 78% 29.94 in 9.0 mi WSW 11.5 mph - N/A   Clear
7:53 PM 61.0 °F 55.9 °F 83% 29.94 in 8.0 mi WSW 11.5 mph - N/A   Scattered Clouds
8:08 PM 60.8 °F 55.4 °F 82% 29.93 in 8.0 mi WSW 10.4 mph - N/A   Mostly Cloudy
8:22 PM 60.8 °F 55.4 °F 82% 29.94 in 9.0 mi West 11.5 mph - N/A   Scattered Clouds
8:53 PM 60.1 °F 55.0 °F 83% 29.95 in 9.0 mi West 10.4 mph - N/A   Scattered Clouds
9:53 PM 59.0 °F 54.0 °F 83% 29.96 in 10.0 mi West 5.8 mph - N/A   Clear
10:29 PM 59.0 °F 55.4 °F 88% 29.95 in 10.0 mi West 9.2 mph - N/A   Mostly Cloudy
10:53 PM 59.0 °F 55.0 °F 87% 29.96 in 10.0 mi WNW 3.5 mph - N/A   Overcast
11:53 PM 59.0 °F 55.0 °F 87% 29.96 in 9.0 mi West 5.8 mph - N/A   Overcast